Lancaster, OH

3:19 PM EDT on April 27, 2017 (GMT -0400)
Fairfield County

Weather History for KLHQ - November, 2010

Change the Weather History Date:

Wednesday, November 10, 2010

  Actual Average Record
Temperature  
Mean Temperature 47 °F -  
Max Temperature 66 °F 54 °F 76 °F (1975)
Min Temperature 28 °F 34 °F 16 °F (1991)
Degree Days  
Heating Degree Days 18    
Moisture  
Dew Point 29 °F    
Average Humidity 67    
Maximum Humidity 92    
Minimum Humidity 22    
Precipitation  
Precipitation 0.00 in - - ()
Sea Level Pressure  
Sea Level Pressure 30.20 in    
Wind  
Wind Speed 1 mph (ENE)    
Max Wind Speed 9 mph    
Max Gust Speed -    
Visibility 8 miles    
Events      
Averages and records for this station are not official NWS values.
T = Trace of Precipitation, MM = Missing Value Source: NWS Daily Summary

Daily Weather History Graph

Daily Weather History Graph

Search for Another Location

Airport or City:

Trip Planner

Search our weather history database for the weather conditions in past years. The results will help you decide how hot, cold, wet, or windy it might be!

Date:

Astronomy

Nov. 10, 2010 Rise Set
Actual Time 7:09 AM EST 5:19 PM EST
Civil Twilight 6:40 AM EST 5:47 PM EST
Nautical Twilight 6:08 AM EST 6:20 PM EST
Astronomical Twilight 5:36 AM EST 6:51 PM EST
Moon 11:32 AM EST (11/10) 9:20 PM EST (11/10)
Length of Visible Light 11h 06m
Length of Day
10h 09m
Waxing Crescent, 22% of the Moon is Illuminated
Nov 10
Waxing Crescent
Nov 13
First Quarter
Nov 21
Full
Nov 28
Last Quarter
Dec 5
New

Hourly Weather History & Observations

Time (EST) Temp. Windchill Dew Point Humidity Pressure Visibility Wind Dir Wind Speed Gust Speed Precip Events Conditions
12:53 AM 32.0 °F - 30.0 °F 92% 30.12 in 6.0 mi Calm Calm - N/A   Clear
1:53 AM 30.9 °F - 28.9 °F 92% 30.12 in 5.0 mi Calm Calm - N/A   Clear
2:53 AM 30.0 °F - 27.0 °F 88% 30.13 in 6.0 mi Calm Calm - N/A   Clear
3:53 AM 28.9 °F - 27.0 °F 92% 30.14 in 6.0 mi Calm Calm - N/A   Clear
4:53 AM 28.9 °F 25.2 °F 27.0 °F 92% 30.17 in 5.0 mi North 3.5 mph - N/A   Clear
5:53 AM 28.9 °F - 27.0 °F 92% 30.17 in 5.0 mi Calm Calm - N/A   Clear
6:53 AM 28.0 °F - 26.1 °F 92% 30.19 in 6.0 mi Calm Calm - N/A   Clear
7:53 AM 30.0 °F - 27.0 °F 88% 30.22 in 4.0 mi Calm Calm - N/A   Clear
8:53 AM 37.9 °F - 34.0 °F 86% 30.23 in 5.0 mi Calm Calm - N/A   Clear
9:53 AM 46.9 °F - 36.0 °F 66% 30.22 in 7.0 mi Calm Calm - N/A   Clear
10:53 AM 55.9 °F - 35.1 °F 45% 30.21 in 9.0 mi Calm Calm - N/A   Clear
11:53 AM 62.1 °F - 34.0 °F 35% 30.20 in 10.0 mi SE 6.9 mph - N/A   Clear
12:53 PM 64.0 °F - 32.0 °F 30% 30.18 in 10.0 mi Calm Calm - N/A   Clear
1:53 PM 66.9 °F - 28.0 °F 23% 30.17 in 10.0 mi ENE 9.2 mph - N/A   Clear
2:53 PM 66.9 °F - 27.0 °F 22% 30.18 in 10.0 mi ENE 6.9 mph - N/A   Clear
3:53 PM 64.0 °F - 24.1 °F 22% 30.20 in 10.0 mi NE 4.6 mph - N/A   Clear
4:53 PM 55.0 °F - 28.0 °F 35% 30.20 in 10.0 mi NE 6.9 mph - N/A   Clear
5:53 PM 45.0 °F - 28.0 °F 52% 30.22 in 10.0 mi Calm Calm - N/A   Clear
6:53 PM 39.0 °F - 28.0 °F 65% 30.24 in 10.0 mi Calm Calm - N/A   Clear
7:53 PM 37.9 °F - 27.0 °F 65% 30.25 in 10.0 mi Calm Calm - N/A   Clear
8:53 PM 35.1 °F - 28.9 °F 78% 30.26 in 10.0 mi Calm Calm - N/A   Clear
9:53 PM 34.0 °F - 28.0 °F 79% 30.27 in 10.0 mi Calm Calm - N/A   Clear
10:53 PM 33.1 °F - 28.0 °F 82% 30.27 in 10.0 mi Calm Calm - N/A   Clear
11:53 PM 30.9 °F - 27.0 °F 85% 30.28 in 10.0 mi Calm Calm - N/A   Clear